Theta_e
333 335 334 337 336 337 336 335 334 336 335 335 335 334 334 332 331 333 332 332 331 333 334 334 333 334 333 334 334 334 333 333 332 330 330 330 330 334 342 343 343 344 347 348 349 350 347 346 344 344 343 341 342 342 342 343 340 340 342 340 339 337 336 336 335 334 334 333 332 331 332 331 330 331 331 332 333 334 336 336 337 337 337 337 337
336 337 335 335 337 337 336 335 334 334 334 334 334 333 332 330 331 331 333 332 331 332 333 333 333 332 332 333 332 333 332 331 332 332 332 331 330 332 340 342 341 342 343 346 349 350 349 346 345 345 340 341 341 341 341 340 340 340 340 341 339 338 337 336 335 335 334 333 332 331 331 331 331 330 331 332 332 333 334 336 336 337 337 337 336
335 336 334 334 334 334 332 333 333 334 334 334 334 332 331 331 332 331 332 332 332 331 331 331 330 331 331 331 331 331 330 331 331 332 332 332 331 331 333 340 341 340 341 342 344 346 347 346 344 339 339 339 339 341 341 340 340 339 339 338 339 338 337 337 336 335 334 334 333 332 331 331 331 330 331 332 332 332 333 335 336 337 336 337 336
336 336 335 333 333 332 332 331 333 333 332 332 333 332 332 333 332 332 331 329 330 329 331 328 329 329 330 330 330 329 329 330 330 331 331 331 330 331 331 333 338 340 342 342 343 344 346 347 344 342 341 341 340 341 341 342 341 339 339 338 337 338 338 337 336 335 335 335 334 333 332 331 330 331 332 332 332 332 333 335 336 336 336 337 336
337 335 338 332 332 331 331 334 335 335 334 332 332 331 331 331 331 330 331 329 329 329 330 328 328 328 328 329 329 329 329 329 330 330 330 331 331 331 331 332 333 338 340 343 343 343 344 345 344 344 341 340 338 341 340 341 340 339 338 338 337 336 338 338 336 335 335 334 334 333 332 331 331 331 332 332 332 332 332 334 336 336 336 336 336
336 334 331 331 331 333 336 337 336 332 332 332 330 329 328 328 329 327 332 327 326 326 326 326 327 326 328 328 328 328 328 328 329 329 329 329 331 331 332 332 332 332 333 338 340 341 341 342 342 342 342 342 342 342 342 341 340 339 338 338 337 337 337 337 337 336 335 335 334 334 333 332 331 331 332 332 332 332 332 333 335 335 336 335 335
336 334 331 331 334 335 335 336 334 331 330 329 328 329 328 326 327 327 325 325 324 326 325 324 324 326 326 327 327 327 327 327 328 328 328 329 329 330 331 332 332 332 332 331 335 336 337 338 339 340 341 342 343 343 342 340 340 338 338 337 337 337 337 336 337 336 336 336 335 334 334 332 332 331 331 332 332 332 332 332 334 335 335 335 335
335 335 333 333 332 331 331 333 332 330 329 327 328 327 325 325 324 323 322 323 324 324 324 324 324 325 326 325 325 326 325 325 327 327 328 327 327 328 329 330 330 331 337 332 331 333 336 337 338 338 340 340 341 342 343 341 341 341 340 339 338 337 335 336 336 337 336 336 336 335 334 333 332 332 332 332 332 332 331 332 334 335 335 335 334
336 336 332 331 329 330 331 331 331 329 327 325 325 326 324 325 323 324 322 321 321 322 323 324 324 325 325 324 324 325 324 325 326 326 326 325 325 326 327 328 330 334 329 330 330 331 333 336 336 337 337 338 339 340 341 339 341 340 338 339 339 338 336 336 337 337 337 336 336 336 335 334 333 333 331 331 332 332 332 332 333 335 335 335 334
335 334 331 331 329 328 327 327 327 326 325 324 323 323 322 321 322 322 323 320 321 321 322 323 324 325 324 324 323 322 322 324 325 327 324 324 324 325 325 326 327 327 328 328 329 329 330 332 335 335 335 336 337 338 339 338 339 337 338 340 338 339 338 337 337 336 334 336 336 336 335 334 333 332 332 331 332 332 332 332 333 335 335 334 334
333 332 329 328 328 327 327 326 325 324 325 324 324 324 323 321 320 322 322 321 321 322 322 323 324 323 323 323 321 321 322 324 324 324 324 323 325 326 325 325 325 325 326 327 328 328 329 329 330 330 331 334 335 336 337 337 338 339 339 337 337 338 338 339 339 336 336 335 336 335 335 334 334 333 332 331 331 332 332 333 333 334 335 334 334
331 330 329 327 326 325 325 326 325 324 324 323 322 323 321 320 321 321 320 322 322 324 324 322 321 318 321 322 321 320 321 323 323 323 324 323 323 324 323 324 323 324 325 326 327 328 328 329 331 330 330 332 334 334 335 336 335 336 338 338 338 337 337 338 339 338 336 335 335 335 335 335 334 333 333 332 331 332 333 332 333 334 335 335 334
330 328 329 332 326 324 325 324 324 325 324 321 321 321 322 321 320 321 320 320 323 324 324 321 319 317 317 317 318 320 321 321 322 322 323 322 322 322 323 322 322 323 324 326 326 327 327 328 329 330 331 331 331 333 333 333 334 335 337 337 337 338 338 338 338 339 336 336 335 335 334 335 334 333 333 332 331 332 332 333 333 333 333 334 334
330 328 327 325 325 325 325 323 323 324 323 323 323 326 322 323 320 320 319 320 321 323 323 321 318 317 315 314 312 316 317 318 321 321 321 322 321 321 322 321 321 323 325 325 325 325 327 327 327 327 329 330 330 331 332 332 333 334 335 335 336 336 335 337 338 338 338 337 336 335 334 334 334 334 333 332 331 332 332 332 332 333 334 334 334
328 329 327 326 325 324 323 322 322 323 322 322 322 323 322 321 321 318 319 320 321 323 322 322 318 317 314 312 309 312 314 313 315 319 319 320 320 320 321 320 321 322 324 324 322 321 323 324 324 324 325 327 328 330 331 332 332 333 334 335 335 336 337 337 337 339 338 337 335 335 333 335 334 334 334 333 332 331 332 332 332 332 334 334 334
327 327 326 325 324 323 321 322 322 322 321 322 321 322 322 322 322 322 318 317 317 318 322 320 319 317 313 313 314 312 308 311 314 314 317 318 319 319 320 319 320 322 325 320 318 318 319 320 318 320 321 322 324 325 328 328 329 330 332 333 334 335 337 336 337 338 338 338 335 335 333 334 334 334 334 333 332 331 332 332 332 332 333 334 334
327 326 327 324 323 322 322 322 321 321 321 321 321 321 322 321 321 321 320 315 314 314 318 320 318 321 318 315 311 311 311 312 312 309 314 316 317 317 320 318 319 322 324 318 316 315 316 317 316 315 317 319 320 321 324 323 324 326 326 329 331 333 336 336 337 338 338 338 336 334 334 335 334 334 334 333 333 331 331 332 332 332 332 334 334
326 325 326 325 322 321 321 322 321 322 322 321 321 322 321 321 321 320 320 319 315 314 313 318 318 318 318 319 318 311 310 310 309 306 314 312 314 317 316 318 320 321 323 319 314 312 314 314 315 314 314 315 317 318 320 320 322 322 324 325 329 330 331 332 337 337 338 336 335 335 334 335 333 334 333 334 333 332 330 332 333 332 332 333 334
325 324 323 323 321 321 321 321 321 321 323 322 321 320 320 321 321 320 318 319 316 313 313 313 312 315 316 315 316 314 315 309 308 312 308 311 311 314 315 317 319 321 320 319 315 311 310 311 312 313 312 313 314 315 317 318 320 321 325 324 323 323 325 329 331 336 336 337 335 336 335 336 335 334 334 334 333 332 331 332 332 332 332 333 334
324 323 322 322 320 321 321 321 321 322 322 321 320 320 320 320 320 318 318 318 315 313 312 313 310 312 315 313 313 313 310 309 312 311 310 307 308 312 312 315 316 318 319 317 317 312 309 308 309 310 311 311 312 313 314 316 316 317 321 322 321 320 320 320 321 325 330 334 336 334 336 337 336 335 334 334 333 332 331 331 331 331 332 332 334
321 321 319 321 322 320 320 320 320 321 323 321 320 320 318 317 316 316 315 315 316 314 312 311 311 310 310 311 310 310 309 309 310 311 311 309 308 309 310 314 314 316 320 317 317 315 310 307 308 308 310 309 309 310 312 313 315 316 320 320 319 318 318 319 317 317 320 328 333 334 335 336 337 338 335 334 333 332 332 331 331 331 332 332 334
320 318 318 319 319 320 320 320 319 322 322 319 318 317 317 316 315 315 314 313 313 313 312 311 310 310 310 310 308 309 308 309 310 311 310 311 308 309 309 308 307 311 318 316 315 314 311 307 305 305 306 307 306 308 310 311 313 315 318 319 318 318 317 317 316 315 316 321 329 332 335 334 336 338 336 334 334 333 332 332 331 332 332 332 333
318 317 317 318 319 321 319 319 321 323 320 318 317 316 316 314 314 313 312 311 310 310 310 310 309 308 308 308 307 307 308 307 308 308 309 309 310 310 310 310 308 307 312 318 314 311 311 307 303 303 304 305 305 306 307 310 313 314 317 318 316 316 316 316 315 315 315 321 326 332 335 335 334 336 336 334 334 333 333 332 332 332 332 332 333
316 316 316 316 319 318 319 318 319 318 318 318 317 316 315 314 313 312 310 310 310 309 307 307 307 306 305 305 305 305 305 305 307 307 306 307 309 308 309 310 306 306 311 315 312 309 305 307 303 302 303 304 304 305 306 308 309 314 315 317 314 313 314 315 315 315 314 317 320 326 333 335 335 335 336 336 334 334 334 333 332 332 332 332 333
315 315 314 315 318 317 317 317 317 318 317 317 316 315 314 312 311 310 309 308 308 307 306 305 305 304 303 303 303 303 302 304 304 304 305 305 307 305 306 307 304 304 307 308 304 306 304 304 304 302 302 302 304 303 305 306 307 312 314 315 313 312 311 312 315 313 312 312 314 318 322 331 334 334 333 335 335 333 334 332 328 327 327 329 330
315 314 315 316 317 317 317 316 316 317 317 316 316 315 313 311 310 309 308 308 308 306 305 305 305 304 304 302 302 302 301 302 302 303 303 303 303 304 304 307 304 302 304 305 302 299 300 302 304 302 301 302 302 303 304 305 306 312 313 313 312 311 309 308 310 312 312 311 311 313 315 318 325 328 330 332 332 328 327 327 324 323 322 322 327
314 315 316 316 317 317 316 315 315 315 315 315 315 313 313 312 311 309 309 307 307 307 305 304 304 303 302 302 302 301 301 301 301 302 303 303 302 302 304 303 304 303 301 302 299 298 297 299 303 301 301 302 301 302 303 304 307 311 311 309 311 309 308 307 309 311 311 311 310 311 312 315 317 320 321 322 324 326 327 328 326 324 323 322 324
316 316 316 316 316 315 315 314 314 314 314 314 312 311 310 309 308 308 307 310 306 305 304 304 303 302 302 301 300 300 300 301 301 302 302 303 303 302 302 303 301 297 297 296 296 295 298 297 299 300 300 300 301 302 306 305 305 309 309 308 310 307 307 306 306 309 310 309 309 310 311 313 315 317 320 323 326 327 328 329 327 325 324 323 326
317 316 315 314 314 314 313 313 313 313 313 313 312 310 309 308 307 306 306 306 306 304 303 303 302 302 301 301 300 299 299 300 300 301 302 302 302 302 301 301 300 296 293 291 294 293 295 297 295 298 300 300 300 302 302 302 306 307 305 306 308 306 307 306 305 307 308 307 306 306 309 311 314 317 321 325 327 328 329 329 326 325 325 327 328
316 317 316 315 314 316 313 312 312 313 312 312 311 309 308 307 307 306 305 305 305 305 305 303 302 302 302 301 300 299 299 299 299 301 301 301 301 300 300 300 300 296 294 291 291 294 294 296 296 296 298 299 300 300 302 302 306 305 303 305 306 305 306 305 305 305 305 306 304 304 307 308 310 313 317 321 324 327 327 327 326 325 327 330 329
316 315 314 312 312 311 311 311 312 312 311 311 310 308 307 306 306 305 305 304 304 303 303 303 303 302 300 300 300 299 299 298 299 299 300 301 300 300 299 299 298 297 295 292 288 292 295 294 296 298 297 298 299 299 300 301 304 304 302 303 305 306 304 303 304 304 304 305 304 305 308 307 307 308 311 314 317 321 326 327 329 328 329 329 325
313 315 313 311 311 310 310 310 310 311 310 310 309 308 307 306 305 304 304 304 303 302 302 303 302 301 300 299 299 299 299 298 298 298 299 299 300 299 299 298 297 297 296 292 290 290 294 294 295 296 297 298 298 297 298 300 302 303 301 302 304 306 301 300 303 303 303 303 304 304 305 305 306 307 308 310 311 313 311 315 325 328 327 323 321
313 313 312 310 309 309 309 310 310 310 309 308 308 307 306 305 304 304 303 303 302 302 302 301 302 301 300 299 299 299 299 298 298 298 298 298 298 299 299 298 297 297 296 294 291 291 293 295 295 296 297 297 296 297 297 298 298 299 301 301 302 304 299 299 300 301 302 302 303 303 302 302 303 306 305 305 306 306 304 305 305 304 311 318 318
313 312 310 309 308 307 307 307 308 309 309 308 307 307 306 304 303 304 303 302 301 301 301 300 300 301 299 298 298 298 298 298 298 298 297 298 298 297 298 297 296 297 297 295 292 291 290 294 294 296 296 297 294 297 296 296 297 298 297 299 301 304 300 298 298 299 301 302 302 303 301 302 301 302 301 300 300 300 301 301 301 301 303 303 303
311 310 308 307 306 306 306 306 308 308 308 307 307 306 305 304 303 302 302 301 301 300 300 300 299 299 298 298 297 298 299 297 297 297 298 297 298 297 297 297 296 296 297 296 293 291 291 291 293 293 294 295 294 294 296 297 297 297 296 297 298 301 302 299 298 298 300 300 301 303 302 301 301 300 300 300 299 299 300 300 300 300 300 300 300
307 307 306 305 305 305 305 306 306 307 307 307 306 306 305 304 303 302 301 301 300 300 300 299 299 299 298 297 297 297 297 296 296 297 297 297 297 297 296 297 296 296 297 296 295 292 291 290 291 292 293 293 294 295 296 296 296 296 296 297 298 298 300 299 297 297 299 300 301 302 303 301 300 300 300 299 299 299 299 299 300 299 299 299 299
305 305 305 304 304 304 304 304 305 304 304 304 303 303 303 303 303 302 301 300 299 299 299 300 303 298 299 297 296 296 296 296 296 296 296 296 297 297 296 296 296 296 297 296 294 293 291 290 290 292 293 293 294 294 295 294 294 295 296 296 296 296 297 298 297 298 299 300 301 302 302 301 300 299 299 299 299 298 298 298 299 299 299 299 299
304 303 303 303 303 302 302 302 303 303 303 303 302 302 301 301 301 301 300 300 299 299 298 298 298 298 297 297 297 295 295 294 295 295 296 296 297 296 296 296 296 296 295 295 295 293 291 290 290 290 292 292 292 293 294 294 293 293 294 295 295 296 296 296 295 296 297 297 298 300 300 302 299 299 298 299 298 298 298 298 298 298 298 298 298
303 302 301 301 301 301 301 301 302 302 302 301 301 300 300 300 299 299 298 297 297 297 296 296 296 296 297 297 297 296 295 294 295 294 294 295 297 295 296 296 295 295 295 294 294 292 291 290 290 290 290 292 292 291 293 294 294 293 292 292 292 294 295 295 294 295 295 296 298 300 300 301 300 298 298 298 298 297 298 297 297 298 298 297 297
302 301 301 300 300 300 300 300 301 301 301 300 299 299 299 299 299 298 297 297 296 295 295 295 295 295 296 297 297 298 298 297 297 295 294 296 295 296 295 296 295 295 294 294 293 292 291 290 289 289 290 290 291 292 293 293 291 292 293 292 290 291 292 294 294 293 294 295 295 297 299 299 300 298 297 297 298 297 297 297 298 298 298 297 297
302 300 300 299 299 298 298 299 299 300 300 299 299 299 298 298 297 297 296 296 296 295 294 294 294 294 294 296 298 299 305 306 304 302 302 303 297 295 295 294 296 294 293 293 292 291 290 290 289 290 290 290 290 290 290 290 289 289 292 292 291 292 292 292 293 295 295 294 295 296 295 296 298 297 295 294 296 297 296 297 297 298 297 296 296
299 299 299 299 298 298 297 297 298 299 299 299 302 300 300 298 296 296 296 295 295 294 295 294 293 294 293 293 301 305 305 305 303 299 297 298 302 299 295 293 293 294 293 292 291 291 291 290 289 289 289 289 289 290 289 290 291 291 291 291 290 291 291 291 292 294 295 294 293 293 293 295 296 297 295 294 295 296 295 295 295 296 296 296 296
299 299 298 297 297 297 296 296 296 296 297 298 296 295 295 297 296 295 294 293 293 293 293 292 292 293 292 292 293 300 301 301 299 298 296 296 296 296 297 298 300 294 292 292 291 290 291 290 289 289 289 289 290 290 290 290 291 290 290 290 290 290 289 288 287 292 295 294 292 291 291 293 294 294 295 294 295 295 295 295 296 296 296 296 296
298 297 296 296 295 295 295 295 295 295 295 297 294 294 294 295 297 296 293 293 293 292 291 291 291 292 292 292 292 295 298 300 296 294 298 297 296 296 296 295 294 294 295 294 292 291 290 290 290 289 289 289 289 290 291 290 290 290 290 290 289 289 288 288 288 288 293 295 291 290 290 292 293 293 293 294 295 295 295 296 296 296 296 296 295
297 296 295 295 294 294 294 294 293 294 292 294 293 294 293 293 294 295 292 292 292 291 290 290 290 290 290 293 293 292 294 300 299 292 293 296 298 298 298 299 299 297 292 292 294 295 290 290 290 289 289 289 289 290 292 291 291 290 290 290 289 289 289 289 289 289 292 294 292 290 289 291 292 291 291 293 294 294 294 295 296 295 295 296 295
295 295 294 294 294 293 293 293 292 292 291 294 293 293 293 292 292 293 291 291 291 290 290 289 290 289 290 290 291 292 291 292 293 292 293 294 295 295 295 294 295 297 296 295 294 294 295 293 291 290 290 290 291 290 294 292 291 290 289 289 289 289 289 289 289 291 292 294 291 289 288 290 291 290 290 291 293 293 294 295 295 295 295 295 295
295 294 293 293 293 294 292 292 292 292 293 293 292 292 292 292 292 293 291 292 291 290 289 289 289 289 289 291 290 290 290 291 294 293 293 294 294 295 294 293 293 293 293 293 293 293 294 293 292 290 290 291 291 292 292 292 292 291 291 290 290 289 289 289 288 290 291 294 293 291 286 289 291 289 289 290 292 292 293 294 295 295 295 295 295
294 294 293 294 293 292 292 292 292 291 291 292 292 292 292 292 293 294 291 291 291 290 289 290 290 289 289 289 289 289 289 290 294 293 295 295 294 293 293 292 292 293 294 298 293 294 294 291 291 291 290 291 293 293 294 293 293 292 293 291 291 290 289 288 288 289 289 292 294 291 288 288 291 288 289 290 290 291 292 293 294 295 295 294 294
294 293 292 292 292 292 292 292 291 290 290 292 292 292 292 292 292 291 291 291 290 289 288 289 290 292 292 290 288 289 289 290 292 291 293 295 293 292 292 291 291 291 292 294 295 293 293 292 292 292 293 293 293 293 293 293 293 294 291 290 289 289 288 286 287 287 288 290 293 292 289 287 289 289 288 289 289 290 291 292 293 294 295 294 294
293 292 292 291 291 292 292 291 292 291 290 292 292 292 292 292 293 291 290 290 289 289 287 288 289 290 296 299 297 288 289 290 291 291 292 295 291 291 291 291 291 290 290 291 293 294 294 294 293 293 292 293 293 294 294 293 294 294 290 288 288 288 288 287 286 286 287 289 291 293 289 287 288 289 288 289 288 289 291 291 292 293 294 294 294
293 292 293 291 290 290 290 292 298 293 291 293 292 292 292 292 293 290 290 289 289 287 288 288 288 290 290 294 296 293 292 291 290 291 292 293 291 289 290 291 290 289 288 288 289 290 292 292 291 293 291 294 295 293 295 294 295 295 290 289 288 288 287 287 287 286 286 287 291 293 288 287 287 289 288 287 286 288 291 291 291 292 293 293 293
Wind_Speed
2 3 2 3 3 4 4 4 3 4 2 3 2 3 4 3 3 3 3 3 4 3 3 3 3 3 3 4 4 4 5 5 4 4 4 5 5 7 9 10 10 10 10 13 16 18 18 16 17 18 17 15 19 17 17 18 17 17 16 18 18 17 16 15 14 13 13 13 12 12 11 12 11 10 8 8 7 6 5 5 5 4 2 3 3
3 1 2 2 2 2 2 2 3 3 2 1 1 1 3 4 3 3 3 3 3 3 2 3 4 3 3 4 4 4 5 5 5 6 5 5 5 5 9 11 12 12 11 12 15 16 16 17 17 17 14 17 19 21 19 20 17 18 16 17 17 16 15 16 15 14 14 14 13 12 11 11 12 11 9 8 7 7 6 6 6 6 4 3 4
2 1 1 1 1 1 2 2 1 1 1 1 2 2 2 3 3 3 4 4 4 4 3 4 4 4 4 4 4 5 5 5 4 5 5 6 6 6 6 10 12 12 12 13 13 14 16 15 15 12 12 18 22 23 19 17 18 19 18 17 16 16 16 16 15 15 15 15 14 12 12 12 13 11 10 9 8 8 6 6 7 7 6 5 5
2 1 1 1 1 1 1 1 1 1 1 1 2 2 3 3 3 3 3 3 5 5 4 4 5 5 5 5 5 6 6 6 5 5 4 4 5 5 5 5 8 10 11 12 12 12 13 15 14 13 18 19 22 22 20 21 21 20 19 16 16 16 15 17 16 16 16 16 15 14 12 12 12 11 11 10 9 9 8 6 6 8 7 7 6
2 0 0 0 1 1 1 2 2 3 3 3 3 3 4 4 5 4 4 5 5 6 5 4 4 5 5 5 5 6 6 6 6 6 6 6 6 6 5 4 4 7 9 10 10 10 11 13 13 15 18 20 21 21 19 22 22 22 16 16 16 18 16 17 17 17 16 16 16 15 13 14 13 12 11 11 11 9 8 7 6 7 9 8 8
1 2 2 1 3 3 3 3 3 2 3 4 5 4 4 4 4 4 4 4 5 4 5 5 5 5 5 4 5 5 5 6 5 5 5 6 6 6 6 6 5 5 5 8 9 9 10 10 13 16 18 19 20 21 18 22 22 20 18 17 14 16 19 18 18 18 17 17 18 16 15 14 14 13 12 11 11 10 8 8 6 7 9 9 9
3 3 2 2 4 4 4 3 2 3 4 4 3 3 4 3 4 5 3 4 4 3 3 4 4 5 5 4 4 5 4 4 4 4 5 5 5 6 7 7 7 6 6 5 7 9 10 11 13 15 17 19 19 18 17 19 19 20 19 20 22 20 18 20 19 19 18 18 18 17 15 15 14 13 13 11 12 11 9 8 6 5 9 10 9
4 3 5 5 5 5 3 2 2 3 4 3 4 5 4 3 2 2 3 4 4 5 4 5 4 5 4 4 4 3 4 4 5 5 5 5 6 6 7 7 7 7 7 6 6 7 11 11 11 12 15 17 17 18 20 19 18 19 21 22 22 19 18 20 20 20 20 19 19 18 17 16 16 15 13 13 13 12 10 9 8 8 8 11 11
4 4 5 5 4 4 2 2 2 3 3 3 4 3 3 3 3 2 1 2 3 4 5 5 5 5 4 4 3 3 4 5 4 5 5 6 6 6 7 7 7 8 7 7 7 7 9 13 12 11 12 14 16 17 19 20 18 18 21 22 20 20 20 22 23 21 20 19 19 19 19 18 17 16 15 14 14 14 12 10 10 8 8 11 12
5 4 5 3 3 3 2 2 2 3 4 4 4 2 3 3 3 3 3 2 4 4 5 5 4 4 5 4 4 3 3 4 5 4 6 6 7 7 6 6 7 7 7 7 7 7 7 10 14 13 13 12 14 16 19 20 20 19 18 18 20 20 20 19 22 20 21 21 20 19 19 17 16 17 16 15 15 14 14 13 12 10 9 11 13
5 4 5 3 3 3 3 2 2 3 4 4 5 4 3 3 3 4 3 2 2 4 4 5 5 4 4 4 3 3 3 4 5 5 5 5 5 7 6 8 7 7 8 8 8 8 9 8 7 7 8 13 12 15 18 20 21 20 19 19 18 17 19 21 22 20 21 22 21 20 19 17 16 17 17 16 16 14 15 15 13 12 10 13 13
5 4 4 3 3 3 3 3 3 4 5 5 4 4 4 4 4 2 4 3 3 4 5 3 4 3 4 5 3 2 3 5 6 5 5 5 6 6 7 7 8 8 9 8 8 9 10 10 9 8 7 11 16 15 16 18 18 19 19 17 17 18 18 22 22 24 24 22 20 20 19 18 18 18 18 17 17 15 16 16 15 13 12 13 15
4 4 4 4 3 2 3 4 3 5 4 3 1 2 2 2 2 1 3 3 6 6 7 3 5 4 4 4 5 3 2 4 7 5 6 5 5 7 7 8 8 9 8 8 10 10 10 11 11 9 9 8 8 13 15 17 16 17 18 18 18 17 17 18 20 24 22 22 21 20 19 19 18 18 18 18 17 17 16 17 16 15 14 13 15
4 4 3 3 4 5 5 4 3 4 3 2 3 3 4 5 3 3 3 4 5 7 8 5 5 4 4 5 4 6 3 3 6 5 6 5 6 7 7 8 9 8 8 9 10 11 10 10 11 11 10 10 9 8 8 9 10 16 18 19 19 18 16 14 20 19 23 20 18 19 19 21 19 18 18 18 17 18 16 17 16 16 15 14 16
4 3 4 4 5 5 4 3 3 2 4 5 5 6 4 4 4 3 3 3 4 5 7 6 3 4 0 2 4 6 5 5 1 5 7 6 6 8 7 8 9 7 7 9 10 11 10 11 12 12 12 12 11 11 10 10 12 17 17 17 18 19 18 17 15 16 19 20 19 21 19 21 21 20 21 19 18 18 17 17 17 17 15 15 16
5 4 5 4 4 5 3 3 4 3 4 5 5 5 5 5 5 4 2 5 4 5 5 6 5 4 4 1 2 1 5 5 10 6 6 6 6 8 6 7 8 7 8 11 10 10 10 10 12 11 12 12 12 12 11 12 19 19 17 17 17 16 17 16 16 16 16 19 19 20 23 19 17 21 21 19 17 16 17 17 18 17 16 15 16
5 5 5 5 3 3 4 3 4 3 3 5 4 4 4 3 4 4 5 2 4 3 5 6 7 5 2 2 3 2 1 4 5 5 5 5 6 7 7 9 8 7 8 9 9 10 11 12 12 11 12 12 12 12 11 13 13 13 16 19 21 17 16 16 16 16 15 17 19 19 21 20 19 20 20 17 17 17 16 17 18 18 17 16 16
5 5 5 4 4 3 3 5 4 4 5 5 3 5 5 6 5 4 5 4 3 5 4 5 5 6 6 4 1 1 4 4 2 5 5 2 4 6 6 8 7 7 7 8 10 10 11 11 11 12 11 11 11 12 11 12 12 11 12 18 26 16 13 15 19 18 16 11 17 19 21 20 20 20 21 19 19 19 19 19 19 19 18 17 16
5 5 4 4 3 3 4 4 4 4 3 5 5 5 5 4 5 6 5 4 4 6 6 4 4 5 6 5 4 2 0 2 4 4 4 5 3 6 7 8 7 6 8 8 9 11 10 10 12 11 11 11 11 10 11 12 15 16 23 28 26 25 20 14 16 19 18 17 15 16 21 21 20 20 22 20 20 20 20 19 19 20 18 16 15
6 4 4 3 3 4 4 4 5 4 4 5 5 4 5 5 5 5 5 5 4 5 4 5 5 4 5 6 5 4 3 3 2 3 3 7 8 3 1 8 7 5 7 9 9 10 10 12 12 11 10 11 10 10 11 11 11 13 12 26 26 25 24 24 22 16 15 17 19 17 18 22 22 23 24 22 19 19 20 20 19 19 17 16 15
4 4 3 3 3 4 4 5 5 4 4 5 5 6 6 6 6 6 5 6 6 4 5 6 6 5 4 5 4 5 4 3 4 5 3 6 4 8 10 8 6 5 5 7 8 8 9 9 10 10 10 10 11 11 11 11 10 11 13 23 26 28 27 25 22 22 18 15 17 18 17 19 22 24 24 22 20 19 20 19 19 19 18 16 15
4 3 3 3 3 4 5 5 4 4 5 5 5 6 6 6 5 5 6 7 6 6 6 5 6 5 5 4 5 5 4 5 6 8 3 3 6 6 6 8 9 7 4 7 9 8 7 9 11 11 10 10 10 11 11 11 11 11 14 23 25 26 27 26 22 22 20 15 14 16 17 16 19 21 24 24 23 22 21 21 20 20 19 17 15
3 2 2 3 4 4 5 4 4 4 5 6 6 6 5 5 5 7 7 7 6 7 7 6 5 6 6 6 6 6 5 6 6 6 5 4 6 4 5 6 4 6 6 6 7 8 8 6 10 10 10 10 10 10 10 11 12 16 23 21 25 26 27 26 25 24 22 20 13 14 15 15 16 19 21 23 24 23 24 24 22 21 20 19 18
1 2 2 3 4 5 4 4 5 5 6 6 6 6 5 6 6 6 6 6 7 7 6 7 5 5 5 5 5 5 6 6 4 4 4 5 5 5 5 5 2 3 4 6 7 7 10 9 8 10 10 9 9 10 10 10 11 22 17 19 22 24 26 26 25 26 24 24 20 13 14 15 14 17 19 21 24 24 24 25 24 22 21 20 20
2 3 2 4 4 5 5 5 5 5 6 6 5 6 6 6 6 6 7 7 6 6 7 6 6 5 5 4 5 6 6 4 4 4 3 2 4 5 4 3 2 4 3 6 7 4 8 10 7 10 9 10 9 10 10 10 10 17 20 11 22 21 23 27 26 26 25 22 23 20 15 15 15 14 16 20 23 25 24 23 22 20 20 19 19
4 3 3 4 4 4 5 5 5 5 6 6 6 6 7 6 6 7 6 5 6 6 6 5 6 5 5 7 7 6 6 6 5 6 6 6 5 5 5 4 3 4 3 5 6 7 6 9 6 8 9 10 10 10 10 11 10 18 21 12 13 21 22 23 25 26 26 25 23 22 20 15 15 15 13 14 20 19 19 19 19 19 19 18 19
4 3 3 4 5 5 5 5 5 6 6 7 7 6 6 6 6 6 6 6 6 6 6 7 8 7 7 7 6 7 6 6 6 6 5 5 3 4 5 6 4 4 6 4 6 7 8 7 5 9 10 10 10 10 10 10 12 20 17 10 9 18 20 21 24 26 26 26 26 24 22 20 15 14 12 10 14 15 16 18 18 19 19 18 18
3 3 3 5 6 5 5 5 5 7 7 7 7 6 6 7 6 6 7 4 6 7 5 6 7 7 7 6 8 7 6 6 6 6 6 5 5 5 5 5 6 6 5 6 7 4 8 10 4 7 10 10 9 9 11 12 11 19 15 9 9 12 18 21 22 24 26 26 26 25 25 22 20 13 13 13 14 15 16 19 19 20 19 17 19
4 3 4 4 5 5 5 5 7 7 8 7 7 6 6 6 6 6 6 4 6 6 5 7 6 6 7 8 7 7 7 6 6 6 6 5 6 6 6 7 4 4 5 7 6 6 8 7 6 7 10 10 9 9 9 8 14 16 10 9 9 11 16 19 23 23 24 26 23 23 24 24 24 20 14 14 15 15 17 19 20 19 18 22 23
3 4 5 5 4 5 6 6 7 7 8 7 7 7 6 6 6 6 4 4 6 6 6 6 7 6 7 8 7 7 6 6 7 6 6 6 7 7 7 6 6 8 3 5 4 4 7 7 5 6 9 10 9 10 8 8 16 16 11 10 9 13 17 18 22 23 22 24 24 24 25 24 24 24 22 16 14 14 15 16 17 16 22 23 20
4 5 5 5 5 5 6 6 7 7 7 7 7 6 6 6 5 6 4 5 6 7 5 6 6 7 8 9 7 7 6 6 6 7 6 7 7 7 7 7 7 5 5 3 4 5 3 7 7 7 8 9 8 9 8 8 12 16 11 10 9 17 17 14 20 23 23 23 24 28 29 28 27 25 26 25 21 17 14 17 16 20 23 23 20
4 5 6 5 5 6 5 7 7 7 7 6 7 6 6 6 5 6 4 5 7 7 6 6 6 7 8 9 8 7 6 5 7 6 6 6 6 7 7 7 7 6 4 4 5 6 4 4 7 8 8 9 7 12 11 8 11 17 11 10 10 14 12 11 15 22 23 23 21 24 26 29 29 28 27 27 27 25 25 21 13 18 20 18 18
4 6 6 6 5 5 6 7 8 8 8 7 6 6 7 6 5 5 4 5 7 6 6 8 7 7 8 8 7 6 5 7 6 6 7 6 6 7 7 7 8 7 7 5 7 8 7 5 5 7 8 8 8 12 11 10 11 11 11 10 10 9 11 10 11 17 23 22 20 21 23 24 26 28 27 27 27 28 26 23 24 22 15 10 19
6 7 7 5 5 6 7 7 8 8 7 7 5 6 7 6 5 4 5 6 7 6 6 7 7 6 6 7 7 6 5 5 5 7 6 7 7 7 7 7 7 7 6 6 5 5 8 9 10 8 8 9 8 10 11 11 11 11 11 10 9 8 10 9 10 11 22 21 21 19 23 22 23 25 27 25 26 27 25 24 25 24 20 21 17
5 7 7 6 6 7 7 7 8 7 7 6 5 6 6 7 6 5 5 6 6 7 7 6 6 5 7 6 6 5 5 6 6 6 6 7 6 7 7 6 7 7 7 6 4 7 8 8 7 9 10 9 8 11 10 8 8 8 9 10 10 8 8 9 10 9 18 20 20 19 20 23 23 23 24 26 27 25 23 24 25 23 22 22 20
7 6 7 7 7 8 8 7 7 7 7 6 6 5 6 7 7 7 6 6 6 6 6 6 5 6 5 6 5 5 4 5 6 6 6 6 7 6 6 6 6 7 6 6 6 4 6 8 9 8 8 8 8 9 8 5 8 9 8 7 8 9 8 9 10 10 14 20 19 20 18 22 22 23 23 26 28 26 27 25 24 23 23 21 21
7 8 6 5 7 7 8 8 8 7 7 7 7 6 5 5 7 7 6 6 6 6 6 5 5 4 5 4 4 4 4 5 5 6 6 7 6 6 6 6 6 6 6 6 7 6 6 9 8 8 8 7 6 8 11 11 9 6 7 8 8 8 8 9 9 10 13 18 17 19 18 19 24 25 25 25 26 28 28 28 24 23 23 22 21
6 6 7 5 6 8 7 7 7 7 6 7 7 7 6 6 7 7 6 5 5 5 4 4 4 4 4 4 3 3 3 4 4 4 5 6 6 7 6 6 6 6 7 7 7 7 7 7 7 8 9 10 10 9 10 9 10 12 11 9 8 9 8 10 11 10 9 9 9 11 14 13 21 23 27 25 27 26 27 25 26 26 26 23 22
8 8 6 8 5 7 6 6 7 7 7 7 7 7 7 7 7 7 6 5 5 5 4 4 4 4 4 3 3 3 3 3 4 4 4 5 5 5 5 4 5 6 7 7 7 7 7 7 7 7 8 8 7 10 11 9 7 7 9 10 11 10 8 9 12 10 9 10 12 14 15 14 16 16 22 25 29 28 26 24 27 26 24 24 22
8 8 8 9 6 6 6 7 6 6 7 7 6 6 6 7 7 6 6 5 5 5 5 4 4 4 3 3 3 2 2 2 3 3 3 4 3 5 5 4 5 6 6 6 7 7 8 8 9 9 8 7 8 7 6 8 10 11 11 9 11 12 10 8 9 12 11 10 10 9 10 11 9 14 15 16 27 27 27 24 27 25 27 23 21
6 7 7 8 9 8 6 6 6 5 7 6 5 7 8 7 7 7 6 5 5 5 5 5 4 4 4 3 3 3 4 8 9 6 5 3 3 4 4 3 4 5 6 6 6 7 7 8 9 8 8 10 9 10 11 13 13 11 10 10 9 9 8 7 8 10 11 11 9 9 11 11 10 11 11 12 16 20 22 26 21 26 26 23 24
7 7 7 6 8 8 8 6 5 5 5 4 7 11 9 8 6 6 6 5 4 4 4 5 4 4 4 4 4 9 9 10 10 11 11 9 6 4 2 3 4 5 5 6 7 7 7 9 9 9 11 12 11 10 10 9 8 8 9 9 10 10 10 9 7 9 12 12 9 10 10 10 10 9 10 12 10 13 12 14 18 20 24 25 24
7 6 7 8 7 6 7 7 7 5 4 5 11 12 12 12 8 6 6 5 4 4 4 4 4 3 3 2 2 5 7 7 6 10 11 10 9 8 8 7 5 3 4 7 6 6 8 8 6 8 9 10 11 9 9 8 8 8 7 7 7 8 10 11 13 10 12 13 9 7 10 10 10 10 10 10 10 11 11 14 21 25 27 27 25
6 6 8 7 7 7 7 7 7 6 5 7 13 13 12 12 10 7 5 5 5 4 3 4 3 2 2 3 3 4 4 5 4 5 7 10 10 10 11 10 10 9 6 4 5 7 6 8 8 7 6 8 8 8 9 9 9 9 9 7 8 8 10 11 9 11 10 12 9 7 10 9 8 9 9 9 10 9 11 17 23 23 21 24 26
6 7 7 7 7 6 7 8 6 5 5 8 13 13 13 12 12 8 6 5 6 4 3 3 3 3 3 4 4 5 4 7 5 4 4 6 10 11 11 10 10 11 11 11 9 5 3 6 6 7 6 4 7 8 8 8 6 8 9 10 9 8 6 8 9 9 12 11 8 8 9 9 10 10 8 9 9 9 10 15 23 23 23 22 21
7 7 6 7 6 6 7 8 7 5 5 9 13 14 13 12 11 9 5 6 5 4 3 3 3 3 3 3 4 5 4 4 4 4 5 7 6 6 6 5 4 6 9 10 9 10 7 5 5 6 5 3 6 6 7 5 7 8 8 10 9 9 8 7 4 6 7 10 11 6 9 12 11 9 9 9 9 10 10 16 22 23 24 24 24
8 8 8 8 6 6 6 7 7 6 5 11 13 14 13 12 11 8 6 5 5 4 3 3 3 3 3 3 4 4 4 4 4 2 5 7 7 6 5 4 4 4 4 5 5 4 4 4 4 3 3 4 4 5 6 6 5 5 4 4 6 5 5 4 1 3 6 10 12 8 9 9 9 9 10 9 8 9 9 13 21 22 24 23 24
5 6 5 6 7 7 6 7 8 7 5 12 13 13 13 11 10 6 5 5 5 4 4 3 3 2 2 3 4 5 4 4 5 5 5 7 7 7 5 4 4 4 4 3 4 5 3 3 3 3 3 3 6 6 7 7 7 7 6 3 4 7 7 9 11 8 10 9 12 10 7 10 9 9 9 8 6 8 10 11 17 23 23 24 24
7 6 6 5 6 8 7 7 8 7 5 8 13 12 11 11 8 6 5 5 5 4 3 3 3 3 3 4 4 4 4 4 4 5 8 11 7 7 5 4 4 4 4 3 4 4 5 5 5 6 7 9 10 11 12 13 10 7 6 9 12 8 10 11 10 10 10 9 10 11 5 8 10 9 9 8 6 7 11 12 13 17 23 22 22
8 6 6 6 4 5 7 7 7 8 6 7 11 11 11 9 7 6 5 6 5 4 3 3 4 4 5 9 6 4 5 4 4 8 7 9 7 5 6 5 5 5 4 4 3 3 5 5 5 7 7 9 9 9 10 11 11 8 7 10 6 6 9 8 8 7 6 7 11 12 6 9 8 9 9 7 3 4 9 10 13 13 16 17 21
8 6 6 7 5 4 5 6 8 8 6 7 10 11 11 10 7 4 6 6 6 4 4 4 4 6 4 6 8 6 4 4 8 9 8 8 6 4 5 6 5 4 2 2 3 4 5 6 6 6 5 7 4 4 5 10 10 8 5 4 5 7 8 7 6 5 7 9 11 13 7 10 11 10 10 9 9 5 7 9 11 13 13 13 14
Wind_Direction
227 223 198 208 244 258 261 258 268 282 288 275 242 293 313 313 323 331 333 337 337 332 326 321 316 318 324 321 322 319 317 309 293 284 279 271 277 284 286 285 282 278 262 248 242 243 244 238 225 241 250 264 265 241 242 242 233 232 219 208 210 209 215 218 219 217 221 223 227 230 231 231 224 221 220 230 239 232 240 243 237 226 199 192 188
179 170 131 226 248 264 255 299 322 295 263 318 311 282 303 339 344 353 353 343 339 317 319 309 316 319 328 324 319 316 311 316 323 325 321 309 288 282 286 288 290 291 279 259 253 251 250 249 238 241 265 270 271 269 252 246 244 238 221 212 211 211 215 213 212 212 215 220 226 231 232 234 229 222 219 221 234 233 234 239 230 223 201 195 192
105 125 138 192 270 347 349 351 331 303 285 281 328 351 346 1 354 342 343 341 331 327 344 340 336 339 338 327 318 321 321 323 321 317 318 311 306 300 296 293 292 291 285 276 267 263 260 261 259 287 273 261 267 261 259 259 258 253 243 227 215 211 214 210 212 211 210 215 223 227 229 231 232 220 219 217 226 232 237 232 227 224 208 199 186
42 357 84 331 301 56 264 141 184 264 307 0 37 26 27 4 2 349 336 341 339 346 342 348 338 332 332 332 331 332 331 330 325 319 309 308 303 295 288 292 296 292 287 282 273 262 259 256 261 262 265 261 259 265 269 263 252 251 246 246 240 218 209 204 210 213 212 212 219 224 223 228 229 221 216 220 222 225 235 227 229 219 214 205 194
59 283 1 73 38 89 72 52 8 9 17 32 52 32 29 13 2 352 348 358 354 347 340 343 345 332 333 329 339 334 335 337 332 334 339 334 332 325 320 308 294 292 294 291 282 274 270 271 264 251 256 263 268 265 266 266 262 255 253 256 250 248 206 203 205 210 213 213 216 219 220 225 224 218 216 219 219 224 229 225 224 224 215 209 203
56 71 359 6 45 62 72 36 27 22 37 27 41 27 32 21 351 355 357 359 352 332 345 346 331 325 333 331 338 330 334 328 332 332 334 341 334 337 334 330 323 314 310 309 305 295 285 277 269 272 278 280 282 280 273 272 273 265 254 253 249 250 231 206 205 205 210 215 214 213 214 220 222 221 217 213 218 220 227 222 223 218 211 210 205
54 55 23 43 63 54 52 33 40 48 47 20 37 27 38 23 358 9 346 355 346 336 342 322 319 320 319 334 329 327 326 321 326 343 351 343 350 356 353 351 343 336 322 317 308 304 295 287 285 286 289 289 286 277 267 268 271 272 264 249 240 236 242 218 205 203 206 212 215 212 208 213 218 222 220 212 217 217 220 219 221 225 214 204 201
41 63 80 72 78 76 64 63 62 63 50 26 35 27 2 25 14 38 10 351 346 343 331 327 317 314 320 333 326 326 323 336 351 352 355 355 9 4 1 359 354 343 336 327 317 307 302 294 287 284 289 293 291 286 284 282 281 279 270 262 251 229 233 227 211 206 205 207 213 213 209 207 213 217 218 216 213 219 218 220 218 220 218 206 202
54 68 88 85 83 83 48 43 40 72 59 41 43 8 27 20 12 15 58 338 346 333 335 330 323 321 322 331 338 339 345 346 353 357 354 17 6 5 4 2 358 352 348 338 329 322 313 310 307 302 291 291 293 293 291 290 285 275 276 273 261 251 240 223 212 209 208 206 210 213 210 205 211 217 216 216 211 218 220 223 222 217 219 211 201
75 75 86 87 82 85 65 44 46 62 58 47 36 16 33 44 20 357 4 13 5 347 334 325 315 322 330 336 346 1 345 356 1 8 18 12 6 4 357 1 1 357 352 347 339 331 325 320 320 317 313 302 299 303 305 305 301 293 281 267 265 255 244 238 223 210 213 208 210 211 210 208 209 216 219 213 211 215 219 222 221 215 219 212 204
78 72 84 77 71 60 62 35 45 57 59 47 27 18 26 20 39 356 353 356 16 335 321 308 322 330 331 332 343 0 347 10 16 16 17 11 4 358 1 7 0 2 1 360 355 350 343 337 329 326 322 319 311 309 311 312 312 309 304 294 283 273 260 247 230 216 212 213 210 210 210 206 204 212 218 217 211 210 219 217 223 216 213 210 205
89 88 93 88 77 50 43 27 38 60 61 50 24 19 12 10 3 5 1 355 11 352 344 339 330 327 331 336 336 24 26 32 22 15 11 13 4 0 8 357 11 4 9 7 7 8 6 360 352 341 330 329 327 320 315 316 312 314 312 302 291 282 268 251 235 218 211 213 217 214 210 204 201 206 213 221 212 207 215 218 221 221 211 211 206
89 90 84 81 64 49 53 39 48 65 65 58 25 23 5 4 333 353 23 17 19 3 359 350 13 0 343 345 333 342 42 31 23 15 9 6 5 9 3 10 9 12 9 10 15 14 14 11 4 358 351 339 329 329 327 325 321 318 317 315 311 295 281 271 250 225 214 216 210 223 214 207 205 204 205 218 216 210 211 217 219 221 216 213 207
98 86 81 76 77 64 57 55 63 72 73 44 35 36 28 22 5 22 13 44 38 10 4 8 22 1 331 328 336 324 336 25 27 7 5 14 7 11 10 11 13 12 13 20 20 16 13 13 9 3 358 355 348 341 334 329 324 322 324 318 313 308 307 292 275 249 224 215 216 219 222 214 207 205 205 211 218 214 211 216 217 218 217 215 210
78 76 78 77 85 80 70 69 55 61 66 43 31 30 23 26 22 41 5 20 47 22 19 32 8 312 258 46 349 359 327 352 23 12 3 5 9 13 8 14 12 17 22 27 25 18 15 13 10 4 1 360 357 354 349 347 333 326 322 320 317 315 313 309 290 261 235 223 215 218 224 216 210 208 208 207 217 215 212 213 216 217 218 213 212
75 82 85 79 82 88 89 69 58 45 70 67 41 35 25 26 25 29 53 44 18 12 18 20 29 358 12 15 267 79 324 13 333 324 354 356 16 3 8 12 10 21 34 35 24 18 15 17 14 7 4 2 360 357 358 0 356 349 338 321 316 315 313 308 296 281 253 233 223 219 223 219 214 211 208 207 212 214 213 212 215 215 217 215 212
83 86 89 85 82 88 84 77 68 44 63 71 59 45 42 34 24 43 43 85 34 10 7 18 29 25 23 28 5 12 59 317 308 294 353 351 3 1 1 10 15 23 43 42 31 24 15 13 11 7 7 4 2 358 0 3 359 356 354 345 334 316 308 304 299 288 272 246 230 229 229 219 214 220 209 202 205 210 211 210 215 215 216 215 209
83 86 86 92 83 80 81 72 62 54 61 75 67 53 40 37 17 38 46 32 97 45 19 358 25 28 35 47 43 27 342 298 13 333 337 307 7 342 358 10 19 27 44 45 36 28 22 11 7 6 3 5 3 0 357 1 357 353 -0 357 355 335 307 293 295 295 292 264 240 236 234 228 219 214 209 202 203 207 210 209 213 217 216 216 210
84 84 83 82 86 73 75 72 66 63 66 72 66 62 54 43 32 43 40 39 40 62 37 351 343 22 18 24 39 53 174 23 16 291 336 335 32 346 1 4 12 34 40 44 42 34 24 17 9 3 1 1 3 0 358 357 358 356 7 6 7 10 356 314 290 297 298 291 275 250 239 222 223 205 207 203 200 205 207 209 210 215 217 217 209
88 79 83 89 95 79 71 66 66 57 71 74 79 71 64 46 45 44 45 42 46 62 55 24 47 350 355 7 359 346 4 69 53 26 320 340 335 331 347 7 2 28 46 40 43 36 26 21 11 5 360 359 0 359 359 357 355 357 358 6 8 7 8 8 353 320 285 286 291 285 262 230 223 214 209 205 201 204 206 209 209 212 215 219 207
67 86 79 87 84 82 73 70 66 65 77 77 71 68 64 57 44 43 44 43 42 48 59 37 35 22 358 2 355 358 340 351 17 16 12 352 341 356 343 346 359 23 41 46 45 43 33 25 13 6 359 359 358 358 357 356 356 356 358 5 8 7 9 5 357 353 335 290 273 275 277 251 228 218 213 207 203 203 205 207 208 208 211 214 211
66 72 88 80 80 76 74 73 78 83 81 84 79 69 62 61 52 55 51 56 39 47 56 49 44 32 31 11 26 358 13 8 15 9 356 36 345 340 343 348 347 334 22 44 46 37 34 22 17 6 1 357 357 357 355 354 353 357 356 6 8 8 9 8 4 356 347 325 277 265 264 260 239 225 219 207 204 204 204 207 207 209 208 209 210
84 75 87 89 80 72 77 80 80 85 85 79 74 75 68 67 58 54 51 53 48 50 49 45 47 43 34 33 36 36 34 26 9 2 8 357 342 342 341 346 325 329 351 37 40 41 26 25 19 6 360 355 356 356 353 350 348 355 358 6 9 11 8 7 6 2 355 351 315 268 269 267 251 235 222 218 209 204 207 206 209 209 209 207 208
98 113 98 93 85 73 75 82 83 84 78 80 77 77 72 67 58 57 54 51 51 54 53 46 41 49 43 37 42 41 38 31 7 0 6 343 346 341 338 323 323 354 336 22 26 31 22 9 17 8 360 354 355 352 348 348 346 352 358 4 12 10 8 6 9 4 1 1 358 320 270 271 264 243 227 222 218 209 207 209 210 208 210 207 207
150 132 129 98 90 85 84 90 85 83 88 82 78 74 71 66 65 61 57 54 49 55 57 51 47 47 47 42 48 41 37 9 15 13 360 338 16 355 315 306 324 332 350 28 7 360 34 2 5 7 356 355 353 352 348 349 346 350 356 1 9 9 8 6 9 8 3 3 6 7 337 281 274 273 240 229 225 212 208 209 209 208 210 208 206
167 164 155 97 80 97 101 96 98 94 89 87 80 73 72 72 66 63 58 52 54 55 59 56 51 46 41 46 38 36 30 18 13 19 16 15 15 5 330 333 359 360 339 30 5 7 2 4 353 3 359 358 353 351 350 348 344 351 356 357 6 9 10 6 7 11 7 6 5 6 3 338 285 261 258 241 231 221 215 210 211 208 208 207 206
162 172 118 90 105 108 106 100 93 86 85 82 76 70 71 72 67 66 58 49 53 56 53 51 49 41 41 41 41 38 24 18 16 20 9 21 15 349 1 5 355 11 2 29 4 49 350 339 345 2 2 355 353 349 348 349 344 353 355 353 5 8 8 9 7 13 11 10 7 5 4 358 337 290 261 244 239 226 215 216 211 207 208 208 207
158 121 94 107 112 107 100 98 91 85 85 85 82 77 72 73 65 61 63 48 61 56 49 52 50 44 45 37 46 35 24 17 18 15 16 8 21 20 26 34 13 353 2 4 12 343 5 355 335 4 357 354 349 348 344 349 350 357 354 354 5 6 7 10 8 12 12 13 11 8 5 4 357 333 285 250 234 232 224 215 215 212 205 208 210
134 110 102 105 115 113 106 96 84 87 89 86 85 80 72 69 69 66 66 54 65 58 48 54 46 45 46 41 46 38 25 16 24 23 16 24 30 35 40 41 19 51 6 358 15 353 345 360 348 334 350 348 348 348 345 349 356 1 350 356 5 8 4 7 12 10 13 13 12 12 10 7 8 359 330 286 253 236 226 219 214 209 206 205 210
129 118 110 113 104 105 101 87 82 86 94 91 88 84 82 73 69 65 61 64 69 58 50 54 46 48 50 46 37 40 18 27 28 21 28 29 34 35 38 35 45 59 30 24 334 1 336 340 353 331 340 345 349 350 346 346 358 2 354 356 5 9 3 8 11 10 11 14 15 15 15 12 12 13 6 344 300 259 240 231 218 213 207 207 204
120 115 110 96 90 82 88 84 84 95 96 96 92 85 84 83 71 69 55 65 69 64 45 51 44 50 50 48 35 36 20 27 28 28 29 32 32 37 36 37 35 52 49 33 20 325 347 338 335 337 335 340 348 349 347 350 359 2 357 357 2 9 6 5 10 11 10 12 18 18 17 17 18 17 17 16 8 341 270 242 237 227 215 208 203
132 112 105 104 98 91 81 86 91 98 98 95 97 96 87 79 77 71 60 66 69 64 54 44 48 48 52 51 38 33 15 28 33 27 27 25 27 32 31 33 33 30 45 47 45 336 327 326 323 329 343 342 346 358 353 352 0 4 359 355 0 13 6 6 6 9 8 10 17 21 20 18 19 21 20 22 22 23 23 3 293 234 217 217 209
123 108 108 102 97 98 90 90 102 108 107 104 102 102 91 88 76 78 68 66 70 61 59 50 42 47 49 52 41 30 20 40 28 25 25 22 22 31 30 29 30 23 24 24 20 351 338 343 335 344 341 351 1 3 355 357 1 358 358 356 357 16 10 9 3 7 7 7 11 22 22 22 22 21 21 22 23 27 28 31 29 17 355 268 210
118 114 108 104 104 99 94 97 105 109 108 109 110 103 102 98 89 78 74 69 69 62 58 55 43 42 47 51 37 26 21 41 31 30 23 22 23 30 27 26 27 18 18 29 11 14 345 339 353 353 357 1 4 6 360 358 359 353 356 359 1 11 15 7 7 5 5 6 8 19 22 22 22 23 22 22 24 23 25 30 29 20 14 19 354
111 113 112 109 107 100 96 101 107 107 109 106 103 107 108 107 100 86 75 72 69 65 61 54 48 42 48 46 34 23 17 36 28 29 26 25 22 32 26 23 26 19 14 23 23 12 0 351 349 355 0 0 11 357 357 359 354 351 356 4 1 1 15 12 10 5 2 2 5 14 25 22 21 22 23 23 23 22 24 24 24 21 19 13 13
108 99 104 111 103 101 102 101 105 110 107 105 103 106 113 111 104 93 80 71 68 66 66 59 49 47 45 46 26 21 18 39 27 29 23 26 27 24 26 17 28 21 16 16 26 23 1 6 1 10 354 357 359 357 358 356 359 0 4 356 2 4 7 15 15 10 358 359 3 10 19 24 22 21 21 23 22 23 23 23 22 23 19 10 11
111 108 95 99 102 100 106 111 108 106 110 112 111 107 104 102 100 94 85 77 70 66 61 57 54 50 46 47 21 20 20 37 25 30 21 28 21 25 22 15 23 20 23 23 18 20 20 19 360 2 0 8 359 358 1 1 3 10 5 10 7 4 4 18 18 10 3 4 2 10 10 24 22 22 22 22 21 22 23 21 19 21 19 14 7
104 101 107 94 104 103 102 104 106 107 107 110 113 115 111 103 95 90 86 79 71 65 59 54 50 45 48 35 23 26 27 37 23 26 28 27 25 24 19 16 18 21 25 18 16 17 22 18 12 360 12 7 1 12 4 1 1 3 5 7 9 11 7 15 18 13 4 1 6 6 9 14 20 19 20 21 23 22 22 19 21 19 17 12 8
116 109 102 100 87 102 101 102 105 111 109 107 110 110 108 102 99 95 87 78 71 67 57 52 46 45 40 31 24 19 27 22 30 22 16 31 30 28 17 14 16 30 25 19 12 17 19 18 15 19 6 8 8 2 358 357 2 18 7 358 9 6 9 17 12 13 7 2 4 8 16 6 24 22 15 17 21 21 19 20 19 18 18 14 6
113 116 117 109 100 94 97 98 100 107 109 109 108 107 103 104 102 95 93 88 78 69 59 48 45 44 37 28 15 2 38 34 31 18 49 35 31 33 13 18 23 37 32 19 20 21 22 24 22 12 14 4 7 6 345 358 9 14 15 6 9 2 3 12 24 11 5 2 1 7 13 6 12 15 12 13 19 16 17 19 16 16 16 12 7
102 104 106 113 111 98 87 93 96 98 106 113 121 120 110 100 100 98 93 87 83 76 61 52 41 39 31 22 14 11 48 52 47 47 47 59 64 50 14 27 32 42 39 32 26 28 30 32 26 18 19 20 15 6 6 12 13 4 343 357 6 7 355 0 16 24 14 360 357 8 13 8 358 15 9 17 13 11 17 14 14 15 15 13 11
107 108 105 100 103 110 106 96 92 96 98 104 113 111 113 118 107 103 93 84 78 71 72 64 47 37 29 20 20 50 45 49 49 53 54 54 59 75 70 62 58 54 50 46 36 33 36 35 27 18 25 24 14 9 9 1 351 345 358 2 10 355 1 11 21 23 9 4 358 8 12 7 356 6 16 15 7 14 10 11 10 9 10 13 12
106 109 109 106 103 103 106 108 102 94 96 108 110 106 107 108 107 102 101 91 75 70 68 71 61 45 27 23 7 35 39 32 31 49 61 63 71 73 66 62 59 76 70 58 49 41 42 42 24 25 29 25 14 4 9 350 354 359 354 353 357 2 17 16 10 355 13 359 353 357 10 6 359 9 13 7 11 13 7 10 4 6 8 9 8
103 103 103 106 106 107 103 99 99 104 104 119 111 108 105 103 103 103 99 95 84 71 62 62 48 42 49 53 38 31 33 34 36 39 59 71 74 72 68 63 57 47 48 67 68 53 44 48 36 22 19 20 4 7 358 357 351 356 360 2 5 8 10 20 16 11 348 354 348 359 6 4 3 4 3 9 9 7 3 3 4 6 1 5 6
113 106 111 109 107 107 108 106 102 104 108 118 109 107 104 102 101 100 95 92 90 79 65 60 53 41 35 57 55 40 18 28 34 34 67 75 69 67 63 61 56 51 43 38 40 65 73 62 56 32 15 343 11 2 353 344 327 9 358 8 0 1 3 21 12 1 360 352 353 2 4 359 5 353 356 3 357 360 358 358 3 4 2 358 357
112 110 106 107 109 108 113 111 109 109 110 119 110 107 105 102 101 98 94 92 88 81 69 56 57 54 44 63 66 48 19 27 25 34 72 80 76 64 56 48 43 36 33 27 33 43 48 67 62 51 356 10 16 342 341 342 2 5 360 2 352 353 354 360 327 0 350 5 8 328 8 5 356 344 356 350 349 359 359 358 1 4 5 3 7
130 128 127 118 115 114 112 113 112 109 121 119 111 108 107 104 100 95 94 93 89 78 64 54 57 55 47 63 74 71 45 32 17 15 88 89 82 75 66 53 47 42 35 21 14 25 46 47 57 48 8 3 4 355 349 351 355 341 325 326 325 308 288 272 311 15 19 17 7 5 21 347 350 354 352 339 342 354 356 0 2 4 6 4 5
98 103 98 111 121 120 117 117 114 115 124 119 114 114 111 109 105 98 98 95 88 78 55 40 48 53 53 61 73 64 50 41 10 32 102 99 86 82 72 57 55 46 35 12 9 16 36 48 45 24 355 0 15 17 11 4 354 345 338 336 4 11 13 27 24 359 23 8 16 6 2 354 354 3 330 328 330 356 1 3 2 4 4 4 3
122 120 125 122 129 127 126 124 121 124 129 130 123 121 118 117 108 103 103 95 89 83 64 39 39 52 61 62 67 73 59 43 12 68 93 99 92 89 84 68 60 58 17 340 4 6 353 344 338 345 9 14 13 17 15 13 13 353 346 26 21 357 26 24 15 12 12 0 9 4 329 351 352 349 333 330 332 0 6 4 2 0 2 2 1
127 131 128 116 113 129 133 135 138 137 144 149 135 130 128 126 120 121 116 106 93 91 69 40 45 51 48 60 67 67 66 43 39 68 77 95 94 101 98 84 60 47 7 346 340 340 329 312 354 2 14 8 11 6 13 12 15 14 25 41 340 354 34 26 14 351 327 5 11 355 342 12 336 353 345 313 289 7 8 2 0 358 357 3 1
126 128 122 117 108 106 133 141 145 138 149 161 151 143 139 133 123 118 117 110 105 84 86 64 47 55 41 42 45 47 62 57 59 63 67 89 99 101 114 98 85 61 346 313 14 18 5 5 357 1 0 354 356 3 2 6 15 23 33 34 352 33 40 25 11 340 4 12 4 355 6 3 358 0 358 349 3 336 16 357 1 360 1 0 360